Regional Weather Roundup
Issued by NWS Northern Indiana

Home | Current Version | Previous Version | Text Only | Print | Product List | Glossary Off
Versions: 1 2 3 4 5 6 7 8 9 10 11 12 13 14 15 16 17 18 19 20 21 22 23 24 25 26 27 28 29 30 31 32 33 34 35 36 37 38 39 40 41 42 43 44 45 46 47 48 49 50

000
ASUS43 KIWX 060910
RWRIWX

KIWX WEATHER ROUNDUP
NATIONAL WEATHER SERVICE NORTHERN INDIANA
500 AM EDT MON JUL 06 2015

NOTE: "FAIR" INDICATES FEW OR NO CLOUDS BELOW 12,000 FEET WITH NO
SIGNIFICANT WEATHER AND/OR OBSTRUCTIONS TO VISIBILITY.

* THESE STATIONS ARE NOT UNDER NWS QUALITY CONTROL. THEY ALSO MAY NOT
  REPORT WEATHER SUCH AS PRECIPITATION OR FOG.

INZ001>027-061000-
NORTHERN INDIANA

CITY           SKY/WX    TMP DP  RH WIND       PRES   REMARKS
GARY*          CLEAR    N/A N/A N/A SE3       30.03F HAZE
VALPARAISO     CLEAR     63  60  90 CALM      30.05S FOG
MICHIGAN CITY* CLEAR     66  63  88 S3        30.04S
LAPORTE*       PTCLDY    65  65 100 CALM      30.05S
KNOX*          CLEAR     63  61  94 CALM      30.04S
SOUTH BEND     CLEAR     64  59  83 CALM      30.06R
GOSHEN         CLEAR     60  58  92 CALM      30.06R
MONTICELLO*    CLEAR     65  64  94 CALM      30.04S
LOGANSPORT*    CLEAR     63  59  88 CALM      30.06S
ROCHESTER*     CLEAR     70  63  78 CALM      30.06S
WARSAW*          N/A     59  59 100 CALM      30.07R FOG
ANGOLA*          N/A     61  57  88 CALM      30.07R
FORT WAYNE     CLEAR     61  58  90 CALM      30.08R
HUNTINGTON*    CLEAR     60  59  96 CALM      30.06R FOG
PERU/GRISSOM   CLEAR     64  61  90 SW5       30.05S
MARION*        CLEAR     61  60  97 CALM      30.08R FOG

$$
INZ028>050-061000-
CENTRAL INDIANA

CITY           SKY/WX    TMP DP  RH WIND       PRES   REMARKS
LAFAYETTE      CLEAR     64  62  93 E3        30.04S FOG
KOKOMO*        CLEAR     64  59  82 SW3       30.06S
MUNCIE*        CLEAR     62  59  90 CALM      30.08R FOG
INDIANAPOLIS   CLEAR     66  61  84 E3        30.05R

$$
MIZ043>046-050>051-056>058-064>065-071>073-077>080-061000-
SOUTHWEST LOWER MICHIGAN

CITY           SKY/WX    TMP DP  RH WIND       PRES   REMARKS
BATTLE CREEK   CLEAR     64  59  83 SE3       30.07S
BENTON HARBOR  CLEAR     65  61  87 SE3       30.03F
COLDWATER*     CLEAR     58  58  97 CALM      30.08R FOG
HILLSDALE*     CLEAR     60  59  99 CALM      30.09R FOG
HOLLAND        CLEAR     64  60  87 CALM      30.04F
GRAND RAPIDS   CLEAR     62  59  90 S6        30.05F
KALAMAZOO      CLEAR     63  58  83 SE3       30.05F
STURGIS*       CLEAR     59  57  94 CALM      30.07R FOG
THREE RIVERS*  FAIR      60  58  92 CALM      30.07S FOG

$$
OHZ001>008-015>018-024>025-061000-
NORTHWEST OHIO

CITY           SKY/WX    TMP DP  RH WIND       PRES   REMARKS
DEFIANCE       CLEAR     59  57  93 CALM      30.07R FOG
FINDLAY        CLEAR     63  59  87 CALM      30.06R
TOLEDO EXPRESS CLEAR     57  56  96 CALM      30.07R FOG
TOLEDO METCALF CLEAR     62  59  90 NW3       30.07R FOG
LIMA           CLEAR     59  57  93 W3        30.08R FOG

$$
AND FOR LAKE MICHIGAN COASTAL AND OPEN LAKE BUOY OBSERVATIONS

STATION/POSITION TEMP    WIND        PRES    VSBY  WAVE
                 AIR SEA DIR/SP/G                  HT/PER
                 (F)     (DEG/KT/KT) (MB)    (MI)  (FT/S)
CALUMET HARBOR    70     200/  2/  3   N/A
MICHIGAN CITY     69     150/  9/ 12   N/A
BURNS HARBOR      70     180/  7/ 12 1016.9S
SAINT JOSEPH      69     130/  2/  9 1017.6F
4 MI NW BRIDGMAN  67 65  220/  8/ 10   N/A           1
MICHIGAN CITY     67 66  190/  6/  8   N/A           1

$$
&&


USA.gov is the U.S. government's official web portal to all federal, state and local government web resources and services.